"Pseudo-MPEC" for P10OH0o

Created 2019 Jun 15 19:08:09 UT using Find_Orb

Click here for an explanation of pseudo-MPECs

 
 Astrometry: 
     P10OH0o  C2019 04 25eR7I_wYiLBC_b^$8ht%E0@AU?n0_EOkL@;eqN.CJ/A/K%gcmahlqF51
     P10OH0o  C2019 05 01c4L((6ANe3T+(sAstrometryVV'Tjuj;Wredacted;YmsG_jdMqmF51
     P10OH0o  C2019 05 010-h8M!F2]si9TCtE:rusenu$9_,dRKA.xvTeZMTM[Q!I?AAon`=iF51
     P10OH0o  C2019 05 01VOJ@[@lVND-\/Ac=nEHJ%qiFl8oRV^qf3u-ISYDQf[;-DXVclickF51
     P10OH0o  C2019 05 01C[IRIIybQW*DxkmnxMl*mMEULW1o87rE`vDHnO@K,%p^J=RIDDS8F51
     P10OH0o  C2019 05 02LRmx/$GHotGUpkXtRjW:d(Wp+o8nAjasS?tUhnwGU]Bb'?AA!x7`F51
     P10OH0o  C2019 05 27T`xH'hcTB\OQJwTH!WSw?ZT9Uu:SfUbMS0.vNcr0lI[i#)_Y`80ZF51
     P10OH0o  C2019 05 27rdsM9g[ZBC-v-ohereL52DF$G[HKd-^$FH^r31Fy[`uXGK?=wUOuF51
     P10OH0o  C2019 05 27U.forC6VHTc,X/Tq\A(([=bWOd(n'Z#0UXRnNH8,[!;,]6h?8$6UF51
     P10OH0o  C2019 05 27[e?=4FQ70-J)9W:AIV%;,*6D.LyClalq)SA2m:C-5G-k#-vck2-9F51
     P10OH0o  C2019 06 01aC+Y^eRQ6[^XGQLD^aEFRK#9f*4M^M4(2H@QTKB50T6;4Tg4s9WfF52
     P10OH0o  C2019 06 01;wpPJUW97D;1Oo]q^GKtbQbrvpEj'1+$\5OkmB\k]m@R*86+cdnoF52
     P10OH0o  C2019 06 01dgW53GxRuZh$K5F-)UF5_^Kki9qoW8Ll%Mc$^8HbdexplanationF52
     P10OH0o  C2019 06 03]bK=k=Zf_1XNJ)w'AJN!w7%WO=Yk[S-3x3QXS-=deEhHBJiFxjxiF51
     P10OH0o  C2019 06 03IUg5/+b/?:wJrPWiov47DVag#_2!N[0Fy/%+K4$ee(]p9e5:3Kd(F51
     P10OH0o  C2019 06 03#2],HmRJGbOR30y)86yQ=@1uS69-tUBIUFJ=P*nf]QXt+ck#)Vx6F51
     P10OH0o  C2019 06 04.22201 16 03 40.64 -23 05 16.7    ~6467 21.8 GVNEOCPI52
     P10OH0o  C2019 06 04.22619 16 03 40.14 -23 05 19.1    ~6467 21.1 GVNEOCPI52
     P10OH0o  C2019 06 08mkCebqAdmD?:n6jJu86XinRN1wR:T**!PMf8y-l+v,yfvIa49@XaF51
     P10OH0o  C2019 06 08r`rJlf$wp%'xE?wSui8qP8^;yoU?MplgiZU@Wy8$DW!QRDj$N(UwF51
     P10OH0o  C2019 06 08;JR[Q#Mlix!c/'bG+`X`81_\i3+h;FlH[CKbqQ:rnJTVK9q*T/o9F51
     P10OH0o  C2019 06 08k^LcCo$CaL%_Qg!Hs;ug?)xEBoOvXxi#\fYeDLK[e#f%P\=!)oF%F51
     P10OH0o KC2019 06 10dOVvMEyc;?Bdy-54r779gup_vS.wYM5IT4#qPBn0,GqA[j3s)):$691
     P10OH0o KC2019 06 10STSb+f52U^@jakt^_*j,fhFy;)(/a(co6K!:gXR-nxvR8ZBx6b@\691
     P10OH0o KC2019 06 10a[?jEZL.Pb3+?'rQYYSM1OYI/VHFB\XVJ#6P1f9xK2%Cc8VfhEy7691

Station data:
(691) Steward Observatory, Kitt Peak - Spacewatch  (N31.962174 W111.600327)
   US/Arizona.  Observer J. V. Scotti. 0.9-m f/3 reflector + CCD.
(F51) Pan-STARRS 1, Haleakala  (N20.707235 W156.255910)  US/Hawaii.
   Observers N. Primak, A. Schultz, S. Watters, J. Thiel, T. Goggia. Measurer
   PS1 Science Consortium. 1.8-m Ritchey-Chrétien + CCD.
(F52) Pan-STARRS 2, Haleakala  (N20.707384 W156.255910)  US/Hawaii. 1.8-m
   Ritchey-Chrétien + CCD.
(I52) Steward Observatory, Mt. Lemmon Station  (N32.442547 W110.788920)
   US/Arizona.  Observers T. A. Pruyne, B. M. Africano, E. J. Christensen, G.
   A. Farneth, D. C. Fuls, A. R. Gibbs, A. D. Grauer, H. Groeller, J. A.
   Johnson, R. A. Kowalski, S. M. Larson, G. J. Leonard, R. L. Seaman, F. C.
   Shelly. 1.0-m reflector + CCD.

Orbital elements:  P10OH0o
   Perihelion 2020 Apr 13.520678 +/- 0.0554 TT = 12:29:46 (JD 2458953.020678)
Epoch 2019 Jun 10.0 TT = JDT 2458644.5   Earth MOID: 0.7567   AutoNEOCP
M 239.08674558 +/- 0.035            (J2000 ecliptic)
n   0.39191296 +/- 6.28e-5          Peri.  312.50877 +/- 0.028
a   1.84930961 +/- 0.000198         Node    65.94875 +/- 0.00006
e   0.0720802 +/- 5.55e-5           Incl.   23.36275 +/- 0.007
P   2.51/918.55d           H 19.6   G  0.15   U  6.2  
q 1.71601083 +/- 0.000106    Q 1.98260838 +/- 0.000306
From 25 observations 2019 Apr. 25-June 10; mean residual 0".25
Residuals in arcseconds: 
190425 F51  .03-  .03-    190527 F51  .11+  .11+    190608 F51  .04-  .08-    
190501 F51  .21+  .04+    190601 F52  .26-  .28+    190608 F51  .03-  .16-    
190501 F51  .03+  .12+    190601 F52  .28-  .16+    190608 F51  .16-  .02-    
190501 F51  .21+  .18-    190601 F52  .09-  .17+    190608 F51  .22-  .15-    
190501 F51  .19+  .15-    190603 F51  .04+  .09+    190610 691  .12+  .00     
190502 F51  .38-  .11-    190603 F51  .01-  .30+    190610 691  1.1+  .41-    
190527 F51  .02-  .12+    190603 F51  .20-  .15+    190610 691  .30-  .08+    
190527 F51  .07+  .11+    190604 I52  .25+  .73-    
190527 F51  .15+  .09+    190604 I52  .31-  .21+    

Ephemerides (geocentric):
Date (UTC) HH   RA              Dec         delta   r     elong  mag " sig PA
---- -- -- --  -------------   -----------  ------ ------ -----  --- ---- ---
2019 06 15 19  15 44 27.879   -25 28 59.48  .95138 1.9202 154.9 21.7 .312  58
2019 06 15 20  15 44 24.135   -25 29 28.50  .95155 1.9202 154.9 21.7 .315  58
2019 06 15 21  15 44 20.395   -25 29 57.51  .95171 1.9202 154.8 21.7 .317  58
2019 06 15 22  15 44 16.658   -25 30 26.50  .95188 1.9201 154.8 21.7 .320  58
2019 06 15 23  15 44 12.925   -25 30 55.48  .95205 1.9201 154.7 21.7 .322  58
2019 06 16 00  15 44 09.196   -25 31 24.44  .95222 1.9201 154.6 21.7 .325  58
2019 06 16 01  15 44 05.471   -25 31 53.39  .95238 1.9200 154.6 21.7 .328  58
2019 06 16 02  15 44 01.749   -25 32 22.32  .95255 1.9200 154.5 21.7 .330  58
2019 06 16 03  15 43 58.031   -25 32 51.24  .95272 1.9200 154.5 21.7 .333  58
2019 06 16 04  15 43 54.317   -25 33 20.14  .95289 1.9199 154.4 21.7 .335  58
2019 06 16 05  15 43 50.606   -25 33 49.02  .95306 1.9199 154.4 21.7 .338  59
2019 06 16 06  15 43 46.899   -25 34 17.89  .95323 1.9199 154.3 21.7 .340  59
2019 06 16 07  15 43 43.196   -25 34 46.75  .95340 1.9199 154.3 21.7 .343  59
2019 06 16 08  15 43 39.497   -25 35 15.58  .95357 1.9198 154.2 21.7 .346  59
2019 06 16 09  15 43 35.801   -25 35 44.41  .95374 1.9198 154.2 21.7 .348  59
2019 06 16 10  15 43 32.110   -25 36 13.22  .95391 1.9198 154.1 21.7 .351  59
2019 06 16 11  15 43 28.422   -25 36 42.01  .95408 1.9197 154.1 21.7 .354  59
2019 06 16 12  15 43 24.738   -25 37 10.79  .95426 1.9197 154.0 21.7 .356  59
2019 06 16 13  15 43 21.057   -25 37 39.55  .95443 1.9197 154.0 21.7 .359  59
2019 06 16 14  15 43 17.381   -25 38 08.29  .95460 1.9196 153.9 21.7 .362  59
2019 06 16 15  15 43 13.708   -25 38 37.03  .95478 1.9196 153.9 21.7 .364  59
2019 06 16 16  15 43 10.039   -25 39 05.74  .95495 1.9196 153.8 21.7 .367  59
2019 06 16 17  15 43 06.374   -25 39 34.44  .95512 1.9195 153.8 21.7 .370  60
2019 06 16 18  15 43 02.713   -25 40 03.13  .95530 1.9195 153.7 21.7 .372  60
2019 06 16 19  15 42 59.055   -25 40 31.80  .95547 1.9195 153.6 21.7 .375  60
2019 06 16 20  15 42 55.401   -25 41 00.45  .95565 1.9195 153.6 21.7 .378  60
2019 06 16 21  15 42 51.752   -25 41 29.09  .95582 1.9194 153.5 21.7 .381  60
2019 06 16 22  15 42 48.106   -25 41 57.71  .95600 1.9194 153.5 21.7 .383  60
2019 06 16 23  15 42 44.464   -25 42 26.32  .95618 1.9194 153.4 21.7 .386  60
2019 06 17 00  15 42 40.825   -25 42 54.92  .95635 1.9193 153.4 21.7 .389  60
2019 06 17 01  15 42 37.191   -25 43 23.49  .95653 1.9193 153.3 21.7 .392  60
2019 06 17 02  15 42 33.561   -25 43 52.06  .95671 1.9193 153.3 21.7 .395  60
2019 06 17 03  15 42 29.934   -25 44 20.60  .95689 1.9192 153.2 21.7 .397  60
2019 06 17 04  15 42 26.311   -25 44 49.13  .95706 1.9192 153.2 21.7 .400  60
2019 06 17 05  15 42 22.693   -25 45 17.65  .95724 1.9192 153.1 21.7 .403  61
2019 06 17 06  15 42 19.078   -25 45 46.15  .95742 1.9191 153.1 21.7 .406  61
2019 06 17 07  15 42 15.467   -25 46 14.64  .95760 1.9191 153.0 21.7 .409  61
2019 06 17 08  15 42 11.860   -25 46 43.11  .95778 1.9191 153.0 21.7 .412  61
2019 06 17 09  15 42 08.257   -25 47 11.56  .95796 1.9190 152.9 21.7 .415  61
2019 06 17 10  15 42 04.657   -25 47 40.00  .95814 1.9190 152.9 21.7 .417  61
2019 06 17 11  15 42 01.062   -25 48 08.43  .95832 1.9190 152.8 21.7 .420  61
2019 06 17 12  15 41 57.471   -25 48 36.84  .95850 1.9190 152.8 21.7 .423  61
2019 06 17 13  15 41 53.884   -25 49 05.23  .95869 1.9189 152.7 21.7 .426  61
2019 06 17 14  15 41 50.300   -25 49 33.61  .95887 1.9189 152.7 21.7 .429  61
2019 06 17 15  15 41 46.721   -25 50 01.97  .95905 1.9189 152.6 21.7 .432  61
2019 06 17 16  15 41 43.145   -25 50 30.32  .95923 1.9188 152.6 21.7 .435  61
2019 06 17 17  15 41 39.574   -25 50 58.66  .95942 1.9188 152.5 21.8 .438  61
2019 06 17 18  15 41 36.006   -25 51 26.97  .95960 1.9188 152.5 21.8 .441  61